[[{"header":{"parameterUnit":"m.s-1","parameterCategory":1,"la1":30.2991,"la2":30.254,"lo1":-89.0895,"lo2":-89.0444,"dy":0.0017,"dx":0.0017,"nx":28,"ny":28,"refTime":"2024-05-13T21:00:00:Z","depth":0,"parameterNumber":2,"parameterNumberName":"U-component_of_WINDS"},"data":[0,0,0,0,0,0,0,0,0,0,0,0,0,0,0,0,0,0,0,0,0,0,0,0,0,0,0,0,0,0,0,0,0,0,0,0,0,0,0,0,0,0,0,0,0,0,0,0,0,0,0,0,0,0,0,0,0,0,-4.8585,-4.8587,0,-4.8812,-4.8815,-4.8817,-4.8851,-4.8849,-4.8846,-4.8845,-4.9077,-4.9084,-4.9092,0,0,0,0,0,0,0,0,0,0,0,0,0,-4.818,-4.8188,-4.8585,-4.8588,-4.859,-4.8812,-4.8815,-4.8818,-4.8851,-4.8848,-4.8846,-4.8844,-4.9074,-4.9083,-4.9093,0,0,0,0,0,0,0,0,0,0,0,0,0,-4.8377,-4.819,-4.8584,-4.8634,-4.864,-4.8811,-4.8815,-4.8819,-4.8852,-4.8848,-4.8845,-4.8842,-4.9071,-4.9083,-4.9095,-4.9232,0,0,-4.9132,-4.9137,0,0,0,0,0,0,0,0,-4.8365,-4.8391,-4.8624,-4.8631,-4.8638,-4.88,-4.8757,-4.8957,-4.8852,-4.8771,-4.8844,-4.8841,-4.8987,-4.9006,-4.9055,-4.9242,-4.9252,-4.9133,-4.914,-4.9145,-4.9149,0,0,0,0,0,0,0,-4.8352,-4.8382,-4.8675,-4.8627,-4.8636,-4.8645,-4.8669,-4.8795,-4.8894,-4.8778,-4.8781,-4.8808,-4.899,-4.9043,-4.9061,-4.9256,-4.9132,-4.9143,-4.9151,-4.9155,-4.9568,-4.9572,0,0,0,0,0,0,-4.8329,-4.837,-4.8667,-4.8682,-4.8491,-4.8655,-4.8682,-4.8751,-4.8892,-4.8911,-4.881,-4.8808,-4.9024,-4.9047,-4.9069,-4.9239,-4.9145,-4.9157,-4.9164,-4.9565,-4.9569,-4.9573,0,0,0,0,0,0,-4.832,-4.8355,-4.8658,-4.8527,-4.8566,-4.8665,-4.8742,-4.8757,-4.881,-4.8917,-4.8934,-4.8846,-4.9023,-4.9052,-4.9191,-4.9248,-4.9162,-4.9173,-4.956,-4.9566,-4.9571,-4.958,0,0,0,0,0,0,-4.8309,-4.8352,-4.8405,-4.8528,-4.8573,-4.8776,-4.8746,-4.8764,-4.8831,-4.8831,-4.8955,-4.8973,-4.9022,-4.9173,-4.9203,-4.9263,-4.9183,-4.9556,-4.9563,-4.9569,-4.9575,-4.9585,-4.9594,0,0,0,0,0,-4.8294,-4.8398,-4.8407,-4.8443,-4.8641,-4.8779,-4.8805,-4.8861,-4.8836,-4.889,-4.8958,-4.8969,-4.9237,-4.9187,-4.9221,-4.9285,-4.9552,-4.9561,-4.9569,-4.9571,-4.9583,-4.9594,0,0,0,0,0,0,-4.8278,-4.8415,-4.8427,-4.8573,-4.8665,-4.8785,-4.8854,-4.8872,-4.8972,-4.8968,-4.9032,-4.906,-4.9196,-4.9255,-4.9197,-4.9426,-4.9393,-4.9408,-4.9382,-4.9395,-4.9404,-4.9386,-4.9193,0,0,0,0,0,-4.8292,-4.8393,-4.8507,-4.8625,-4.8671,-4.8755,-4.8817,-4.8852,-4.8949,-4.8988,-4.9067,-4.916,-4.9266,-4.9334,-4.9437,-4.9585,-4.9612,-4.9646,-4.9655,-4.9662,-4.9674,-4.9758,-4.9774,-4.96,-4.96,-4.96,0,0,-4.8321,-4.8408,-4.8468,-4.8624,-4.8699,-4.8802,-4.8787,-4.8897,-4.8974,-4.9004,-4.9141,-4.9202,-4.9311,-4.9455,-4.9523,-4.9508,-4.9729,-4.9673,-4.9678,-4.9686,-4.9768,-4.9784,-4.9799,-4.9606,-4.9605,-4.9604,0,0,-4.8426,-4.8502,-4.861,-4.8685,-4.8799,-4.8855,-4.8881,-4.8999,-4.9041,-4.9179,-4.9204,-4.9298,-4.9478,-4.9555,-4.9618,-4.9755,-4.9768,-4.9787,-4.9835,-4.9915,-4.9929,-4.9941,-4.999,-5.0006,-4.9799,-4.9799,-4.9799,0,-4.8448,-4.8604,-4.8662,-4.8772,-4.884,-4.8874,-4.8983,-4.9054,-4.9195,-4.9242,-4.9224,-4.9453,-4.9528,-4.9691,-4.9725,-4.9774,-4.9806,-4.9772,-4.9922,-4.9935,-4.9947,-4.9994,-5.0013,-4.98,-4.98,-4.98,-4.98,0,-4.8625,-4.8733,-4.8806,-4.8943,-4.902,-4.9128,-4.9203,-4.9274,-4.9304,-4.9361,-4.9502,-4.9594,-4.9717,-4.9759,-4.9788,-4.9926,-4.9914,-4.9909,-4.9876,-4.9964,-5.001,-5.0028,-4.9802,-4.9802,-4.9801,-4.9801,0,0,-4.8725,-4.8893,-4.8919,-4.8981,-4.911,-4.9195,-4.9306,-4.9427,-4.9486,-4.9584,-4.9678,-4.9831,-4.9828,-4.9899,-4.9937,-5.0008,-5.011,-4.9994,-4.9998,-5.0012,-5.0269,-5.0271,-5.0291,-5.0121,-5.0125,-5.0128,-5.026,0,-4.8845,-4.9043,-4.9099,-4.9266,-4.9367,-4.9402,-4.9498,-4.9588,-4.9646,-4.974,-4.9804,-4.9911,-4.9898,-4.9941,-5.0013,-5.0083,-5.0163,-5.0074,-5.0209,-5.0213,-5.0179,-5.0315,-5.0318,-5.0438,-5.0278,-5.0281,-5.0283,0,-4.901,-4.9111,-4.9288,-4.9405,-4.945,-4.9535,-4.9651,-4.9741,-4.9844,-4.9881,-4.9961,-4.9994,-5.0112,-5.0074,-5.0237,-5.0175,-5.0235,-5.0278,-5.0284,-5.0297,-5.0252,-5.0331,-5.0477,-5.0495,-5.0312,-5.0309,-5.0307,0,-4.9065,-4.9245,-4.9374,-4.9427,-4.9567,-4.9626,-4.9687,-4.9787,-4.9857,-4.9958,-5.0004,-5.0117,-5.0179,-5.0267,-5.033,-5.0297,-5.0488,-5.0455,-5.0522,-5.052,-5.0559,-5.0555,-5.0715,-5.0599,-5.0598,-5.0598,-5.0598,0,-4.9192,-4.9299,-4.9401,-4.948,-4.9601,-4.9666,-4.9784,-4.9847,-4.9936,-5.0029,-5.0066,-5.0152,-5.0231,-5.0328,-5.0378,-5.0505,-5.0533,-5.0567,-5.0578,-5.0563,-5.0558,-5.0601,-5.0594,-5.0603,-5.0602,-5.0601,-5.06,0,-4.9273,-4.9345,-4.9488,-4.9609,-4.9642,-4.9726,-4.983,-4.9909,-4.9968,-5.0085,-5.0117,-5.021,-5.0326,-5.0398,-5.0546,-5.058,-5.072,-5.0729,-5.0685,-5.069,-5.0752,-5.0745,-5.0945,-5.0974,-5.0838,-5.0839,-5.084,0,-4.9348,-4.9432,-4.9562,-4.9627,-4.9688,-4.9792,-4.9863,-4.9931,-5.0003,-5.0128,-5.0192,-5.0311,-5.0409,-5.0594,-5.0675,-5.0788,-5.08,-5.0862,-5.0817,-5.0799,-5.0801,-5.0794,-5.0803,-5.0869,-5.087,-5.0871,-5.0872,0,-4.9476,-4.9508,-4.9608,-4.9723,-4.9806,-4.9899,-4.9992,-5.0043,-5.0127,-5.0206,-5.0326,-5.0402,-5.0553,-5.0671,-5.0792,-5.0855,-5.0878,-5.0886,-5.0907,-5.0891,-5.0862,-5.0878,-5.0704,-5.088,-5.088,-5.0879,-5.0878,-5.0878,-4.9556,-4.9632,-4.9736,-4.9847,-4.9924,-5.001,-5.009,-5.016,-5.0261,-5.0389,-5.0423,-5.0548,-5.0651,-5.0816,-5.0882,-5.0981,-5.0972,-5.1003,-5.1011,-5.1017,-5.1018,-5.0847,-5.1004,-5.1003,-5.1003,-5.1003,-5.1003,0,-4.9685,-4.9754,-4.9856,-4.9984,-5.0072,-5.0086,-5.019,-5.0263,-5.0372,-5.0466,-5.0562,-5.07,-5.0815,-5.0906,-5.1024,-5.1086,-5.1099,-5.1115,-5.111,-5.1125,-5.102,-5.0989,-5.1102,-5.1102,-5.1102,-5.1102,-5.1102,-5.1102,-4.9763,-4.9891,-4.9936,-5.0104,-5.0172,-5.0295,-5.0353,-5.0433,-5.0508,-5.066,-5.0755,-5.0814,-5.0907,-5.1032,-5.1139,-5.1163,-5.1204,-5.1217,-5.1243,-5.1143,-5.1132,-5.1122,-5.1093,-5.1226,-5.1226,-5.134,-5.1341,-5.1342]},{"header":{"parameterUnit":"m.s-1","parameterCategory":1,"la1":30.2991,"la2":30.254,"lo1":-89.0895,"lo2":-89.0444,"dy":0.0017,"dx":0.0017,"nx":28,"ny":28,"refTime":"2024-05-13T21:00:00:Z","depth":0,"parameterNumber":3,"parameterNumberName":"V-component_of_WINDS"},"data":[0,0,0,0,0,0,0,0,0,0,0,0,0,0,0,0,0,0,0,0,0,0,0,0,0,0,0,0,0,0,0,0,0,0,0,0,0,0,0,0,0,0,0,0,0,0,0,0,0,0,0,0,0,0,0,0,0,0,6.0457,6.0458,0,6.0545,6.0546,6.0547,6.0514,6.0512,6.051,6.0508,6.0593,6.0597,6.0601,0,0,0,0,0,0,0,0,0,0,0,0,0,6.0255,6.0258,6.0457,6.0458,6.0459,6.0545,6.0547,6.0548,6.0514,6.0512,6.051,6.0507,6.0592,6.0597,6.0602,0,0,0,0,0,0,0,0,0,0,0,0,0,6.0343,6.026,6.0457,6.0453,6.0454,6.0545,6.0547,6.0548,6.0515,6.0512,6.0509,6.0506,6.059,6.0596,6.0602,6.0701,0,0,6.0621,6.0624,0,0,0,0,0,0,0,0,6.0338,6.035,6.0453,6.0454,6.0454,6.0516,6.0506,6.0599,6.0516,6.0492,6.0508,6.0505,6.0569,6.0577,6.06,6.0705,6.0708,6.0622,6.0625,6.0628,6.063,0,0,0,0,0,0,0,6.0332,6.0346,6.0492,6.0454,6.0455,6.0445,6.0455,6.0524,6.0546,6.0493,6.0491,6.0502,6.0569,6.0594,6.0602,6.071,6.0622,6.0627,6.0631,6.0633,6.09,6.0903,0,0,0,0,0,0,6.0326,6.0341,6.0489,6.0494,6.0388,6.0452,6.0462,6.0499,6.0545,6.055,6.0505,6.0501,6.0585,6.0595,6.0605,6.0723,6.0628,6.0634,6.0637,6.0897,6.0901,6.0904,0,0,0,0,0,0,6.0322,6.0339,6.0485,6.0417,6.0435,6.0458,6.05,6.0502,6.0527,6.0554,6.0557,6.0527,6.0583,6.0596,6.0678,6.0726,6.0637,6.0642,6.0893,6.0898,6.0902,6.0961,0,0,0,0,0,0,6.0316,6.0338,6.0377,6.0419,6.0439,6.0558,6.0503,6.0506,6.0539,6.0534,6.0575,6.0579,6.0582,6.0669,6.0684,6.0733,6.0647,6.0888,6.0895,6.0901,6.0955,6.0967,6.0978,0,0,0,0,0,6.0309,6.0388,6.0379,6.0397,6.0488,6.0561,6.0573,6.0576,6.0543,6.0581,6.0599,6.0578,6.0718,6.0677,6.0694,6.0745,6.0885,6.0893,6.09,6.095,6.0965,6.0978,0,0,0,0,0,0,6.0349,6.0394,6.0384,6.0479,6.0517,6.0555,6.0604,6.0592,6.0638,6.0631,6.0631,6.0641,6.0725,6.0743,6.0697,6.0843,6.0797,6.0808,6.0828,6.0843,6.0855,6.0848,6.0652,0,0,0,0,0,6.037,6.0427,6.0462,6.0543,6.0563,6.058,6.0612,6.0612,6.065,6.0665,6.0688,6.0724,6.0777,6.0811,6.0861,6.0958,6.0966,6.1002,6.1013,6.1023,6.1032,6.1085,6.1101,6.0929,6.0929,6.0929,0,0,6.0411,6.0443,6.0478,6.0552,6.0581,6.0639,6.0594,6.0657,6.0699,6.0674,6.0753,6.0771,6.0812,6.0902,6.0943,6.092,6.1082,6.1032,6.104,6.1044,6.1094,6.111,6.1125,6.0934,6.0933,6.0932,0,0,6.0517,6.0547,6.0618,6.0649,6.0695,6.0706,6.0723,6.0765,6.0776,6.0856,6.0839,6.0889,6.0979,6.1009,6.1036,6.1155,6.1138,6.1171,6.1231,6.1283,6.1296,6.1308,6.1351,6.1366,6.1181,6.1181,6.1181,0,6.0563,6.0651,6.0656,6.0721,6.0754,6.0736,6.0807,6.0836,6.0895,6.0917,6.0891,6.1005,6.1031,6.1128,6.1157,6.118,6.1198,6.1166,6.1295,6.1307,6.1318,6.1358,6.1374,6.1185,6.1184,6.1184,6.1183,0,6.0705,6.0767,6.0818,6.0878,6.0916,6.0984,6.0998,6.1036,6.1032,6.1046,6.1128,6.1159,6.1215,6.1238,6.1234,6.1334,6.1319,6.1294,6.1247,6.1338,6.1376,6.1391,6.119,6.1189,6.1187,6.1186,0,0,6.0837,6.09,6.0919,6.0946,6.0996,6.1043,6.111,6.1166,6.1199,6.124,6.1296,6.1374,6.1351,6.1382,6.1382,6.1427,6.1519,6.1397,6.1398,6.1418,6.1632,6.1649,6.1667,6.1509,6.1512,6.1514,6.1628,0,6.0946,6.1066,6.1073,6.118,6.1237,6.1222,6.128,6.1316,6.1331,6.138,6.1396,6.1451,6.1418,6.1437,6.1481,6.1499,6.1562,6.1491,6.1559,6.1561,6.1548,6.1687,6.1706,6.1812,6.1643,6.1645,6.1647,0,6.1089,6.1138,6.1252,6.1295,6.1319,6.1371,6.1424,6.1472,6.1513,6.152,6.1556,6.155,6.1617,6.1569,6.1661,6.1612,6.1641,6.1654,6.1658,6.1663,6.1609,6.1695,6.1845,6.1861,6.167,6.1669,6.1667,0,6.1174,6.1267,6.1348,6.1372,6.1424,6.1461,6.1484,6.1522,6.1556,6.1602,6.1624,6.1676,6.1705,6.1745,6.1753,6.1717,6.1845,6.1797,6.1852,6.1852,6.1879,6.1877,6.2035,6.1899,6.1899,6.1898,6.1898,0,6.1295,6.1365,6.1387,6.1436,6.1514,6.1521,6.1598,6.1618,6.1652,6.1704,6.1694,6.1742,6.175,6.18,6.1806,6.1882,6.1895,6.1902,6.1903,6.1903,6.1902,6.192,6.1913,6.1903,6.1902,6.1901,6.19,0,6.1401,6.1419,6.1506,6.1549,6.1562,6.1617,6.1653,6.17,6.1715,6.1781,6.1797,6.1819,6.1878,6.189,6.1959,6.1963,6.2053,6.2046,6.204,6.2039,6.2093,6.2087,6.2267,6.2291,6.214,6.2142,6.2143,0,6.1477,6.1531,6.1581,6.1616,6.1642,6.1698,6.1734,6.1743,6.178,6.1831,6.1871,6.193,6.1976,6.2071,6.2092,6.2145,6.2139,6.2199,6.2147,6.2146,6.214,6.2136,6.2141,6.2208,6.221,6.2211,6.2212,0,6.161,6.1616,6.1669,6.1725,6.1768,6.1812,6.1853,6.1882,6.1897,6.1939,6.2,6.2037,6.2108,6.2166,6.2219,6.2241,6.2229,6.2229,6.2244,6.2244,6.2238,6.2242,6.2066,6.2224,6.2223,6.2222,6.2222,6.2221,6.1703,6.175,6.1793,6.1852,6.1885,6.1925,6.1971,6.1993,6.2045,6.2105,6.2107,6.2173,6.2213,6.2283,6.2309,6.236,6.2341,6.2364,6.2369,6.2375,6.2379,6.2231,6.237,6.237,6.2369,6.2369,6.2369,0,6.1834,6.1862,6.1916,6.1976,6.2022,6.2009,6.2055,6.2094,6.2154,6.2193,6.224,6.231,6.2366,6.2393,6.2448,6.2484,6.248,6.2498,6.2495,6.25,6.2393,6.2374,6.2501,6.2501,6.2501,6.2501,6.2501,6.2501,6.1908,6.1988,6.2,6.2096,6.2122,6.2189,6.2216,6.2252,6.2283,6.2363,6.2411,6.2429,6.2463,6.252,6.2571,6.2577,6.2598,6.2619,6.2622,6.2521,6.2508,6.2495,6.2477,6.2623,6.2623,6.2725,6.2726,6.2727]}]]